COSMOS 2251 DEB, 34481

Orbit data source: Space-Track

COSMOS 2251 DEB, 34481 is space debris in LEO originally from a launch on Wed, 16 Jun 1993 UTC launched from the Plesetsk Missile And Space Complex (PKMTR). The debris from Iridium 33, an American commercial communications satellite, has been tracked extensively since its accidental collision with the defunct Russian satellite Cosmos 2251 in 2009. This event, occurring at high speed in low Earth orbit (LEO), generated thousands of pieces of space debris, significantly increasing the risk of further collisions. The Iridium 33 debris cloud has impacted space traffic management and orbital debris mitigation strategies, making it a subject of ongoing study in space situational awareness.

Loading next visibility...
Identifier
34481, 1993-036UA
Orbit
LEO
Country
Flag of CISCIS
Related business
Manufacturer
Unknown
Mission
Spacecraft
Bus & Motor
Unknown
Mass
Unknown
Launch date (UTC)
Icon of a cake. It is the launch day of the satellite!1993-06-16 (33 years ago)
Launch vehicle
Unknown
Launch site
Plesetsk Missile And Space Complex (PKMTR)
Object type
Payload
Rocket body
Debris
Shape & HBR
Unknown shape, 0.1 m
Radar Cross Section
Medium (>0.1 m² and <1 m²)

Expand to show TLE details & history
Last TLE update: 5 hours ago

TLE from 5 hours ago
0 COSMOS 2251 DEB
1 34481U 93036UA  26167.19791022  .00000942  00000-0  34335-3 0  9990
2 34481  73.9788  73.5061 0070334 204.3189 281.6738 14.33109971901058
Epoch: 2026-06-16T04:44Z
TLE epoch observation values (Epoch: 2026-06-16T04:44:59.443Z)
Latitude
51.86503°
Longitude
-103.54889°
Altitude
779.538 km
Speed
7.474 km/s
True Right ascension
15h 28m 41s
True Declination
51° 41' 54"
Sunlit
Object was in daylight at epoch
Visualization orbit readout
Latitude
Unknown
Longitude
Unknown
Altitude
Unknown
Speed
Unknown
Apparent Right ascension
Unknown
Apparent Declination
Unknown
Sunlit
N/A
Visualization observer readout
Local Sidereal Time
20:21:52
Azimuth
Unknown
Elevation
Unknown
Doppler factor
Unknown
Orbital elements
Apogee altitude
829.325 km
Perigee altitude
728.647 km
Semi-major axis
7,157.123 km
Eccentricity
0.00703
Inclination
73.9788°
RAAN
73.5061°
Arg. of periapsis
204.3189°
True anomaly
280.88312°
Mean anomaly
281.6738°
Eccentric anomaly
281.2786°
Mean motion
3.58456 °/min
Orbital period
100.43 mins
BSTAR
0.00034335

Documentation

Showing up to 5 results
|